Charleroi, Belgium

2:19 AM CEST on September 29, 2016 (GMT +0200)
Brussels South

Weather History for EBCI - April, 2013

Change the Weather History Date:

Thursday, April 18, 2013

  Actual Average Record
Temperature  
Mean Temperature 54 °F -  
Max Temperature 60 °F 54 °F 68 °F (2011)
Min Temperature 48 °F 38 °F 33 °F (2016)
Degree Days  
Heating Degree Days 11    
Growing Degree Days 4 (Base 50)    
Moisture  
Dew Point 39 °F    
Average Humidity 54    
Maximum Humidity 82    
Minimum Humidity 24    
Precipitation  
Precipitation 0.00 in - - ()
Sea Level Pressure  
Sea Level Pressure 30.04 in    
Wind  
Wind Speed 14 mph ()    
Max Wind Speed 25 mph    
Max Gust Speed 34 mph    
Visibility 7.6 miles    
Events Rain    
Averages and records for this station are not official NWS values.
T = Trace of Precipitation, MM = Missing Value Source: Averaged Metar Reports

Daily Weather History Graph

Daily Weather History Graph

Search for Another Location

Airport or City:

Trip Planner

Search our weather history database for the weather conditions in past years. The results will help you decide how hot, cold, wet, or windy it might be!

Date:

Astronomy

Apr. 18, 2013 Rise Set
Actual Time 6:42 AM CEST 8:41 PM CEST
Civil Twilight 6:07 AM CEST 9:16 PM CEST
Nautical Twilight 5:23 AM CEST 10:00 PM CEST
Astronomical Twilight 4:35 AM CEST 10:49 PM CEST
Moon 12:30 PM CEST (4/18) 2:56 AM CEST (4/18)
Length of Visible Light 15h 09m
Length of Day
13h 59m
Waxing Crescent, 49% of the Moon is Illuminated
Apr 18
Waxing Crescent
Apr 18
First Quarter
Apr 25
Full
May 2
Last Quarter
May 10
New

Hourly Weather History & Observations

Time (CEST) Temp. Dew Point Humidity Pressure Visibility Wind Dir Wind Speed Gust Speed Precip Events Conditions
12:20 AM 66.2 °F 48.2 °F 52% 29.92 in - South 10.4 mph - N/A   Clear
12:50 AM 66.2 °F 48.2 °F 52% 29.89 in - South 12.7 mph - N/A   Clear
1:20 AM 66.2 °F 48.2 °F 52% 29.89 in - SSW 12.7 mph - N/A   Clear
1:50 AM 64.4 °F 48.2 °F 56% 29.89 in - SSW 12.7 mph - N/A   Clear
2:00 AM 65 °F 48 °F 43% 29.89 in 17 mi SSW 11.2 mph - -   Clear
2:20 AM 64.4 °F 48.2 °F 56% 29.89 in - SSW 12.7 mph - N/A   Clear
2:50 AM 64.4 °F 48.2 °F 56% 29.89 in - SSW 13.8 mph - N/A   Clear
3:20 AM 62.6 °F 48.2 °F 59% 29.89 in - WSW 17.3 mph - N/A   Clear
3:50 AM 57.2 °F 48.2 °F 72% 29.92 in - West 12.7 mph - N/A   Clear
4:20 AM 55.4 °F 48.2 °F 77% 29.95 in - West 11.5 mph - N/A   Clear
4:50 AM 53.6 °F 46.4 °F 77% 29.95 in 6.2 mi WSW 13.8 mph - N/A   Scattered Clouds
5:00 AM 54 °F 46 °F 67% 29.96 in 17 mi WSW 13.4 mph - -   Mostly Cloudy
5:20 AM 53.6 °F 46.4 °F 77% 29.95 in 6.2 mi WSW 12.7 mph - N/A   Mostly Cloudy
5:50 AM 51.8 °F 44.6 °F 76% 29.98 in 6.2 mi WSW 13.8 mph - N/A   Mostly Cloudy
6:20 AM 51.8 °F 42.8 °F 71% 29.98 in 6.2 mi WSW 13.8 mph - N/A   Mostly Cloudy
6:50 AM 50.0 °F 42.8 °F 76% 30.01 in 6.2 mi WSW 13.8 mph - N/A   Scattered Clouds
7:20 AM 48.2 °F 42.8 °F 82% 30.01 in 6.2 mi WSW 17.3 mph - N/A   Partly Cloudy
7:50 AM 50.0 °F 42.8 °F 76% 30.04 in 6.2 mi WSW 15.0 mph - N/A   Partly Cloudy
8:00 AM 49 °F 43 °F 72% 30.05 in 9 mi WSW 15.7 mph - -   Scattered Clouds
8:20 AM 50.0 °F 41.0 °F 71% 30.04 in 6.2 mi WSW 16.1 mph - N/A   Partly Cloudy
8:50 AM 50.0 °F 41.0 °F 71% 30.04 in 6.2 mi WSW 17.3 mph - N/A   Partly Cloudy
9:20 AM 50.0 °F 39.2 °F 66% 30.06 in 6.2 mi WSW 16.1 mph - N/A   Partly Cloudy
9:50 AM 51.8 °F 37.4 °F 58% 30.06 in 6.2 mi WSW 17.3 mph - N/A   Partly Cloudy
10:20 AM 53.6 °F 37.4 °F 54% 30.06 in 6.2 mi WSW 19.6 mph - N/A   Partly Cloudy
10:50 AM 55.4 °F 37.4 °F 51% 30.06 in 6.2 mi WSW 17.3 mph - N/A   Partly Cloudy
11:00 AM 55 °F 38 °F 40% 30.08 in 9 mi WSW 17.9 mph - -   Scattered Clouds
11:20 AM 55.4 °F 35.6 °F 47% 30.06 in 6.2 mi WSW 20.7 mph - N/A   Partly Cloudy
11:50 AM 55.4 °F 35.6 °F 47% 30.09 in 6.2 mi WSW 21.9 mph - N/A   Partly Cloudy
12:20 PM 55.4 °F 35.6 °F 47% 30.09 in 6.2 mi WSW 21.9 mph - N/A   Scattered Clouds
12:50 PM 53.6 °F 37.4 °F 54% 30.09 in 6.2 mi WSW 18.4 mph - N/A   Scattered Clouds
1:20 PM 57.2 °F 35.6 °F 44% 30.09 in 6.2 mi WSW 25.3 mph - N/A   Scattered Clouds
1:50 PM 55.4 °F 35.6 °F 47% 30.09 in 6.2 mi WSW 21.9 mph - N/A   Scattered Clouds
2:20 PM 57.2 °F 35.6 °F 44% 30.09 in 6.2 mi WSW 20.7 mph - N/A   Scattered Clouds
2:50 PM 57.2 °F 35.6 °F 44% 30.09 in 6.2 mi WSW 21.9 mph - N/A   Scattered Clouds
3:20 PM 59.0 °F 33.8 °F 39% 30.09 in 6.2 mi WSW 20.7 mph - N/A   Partly Cloudy
3:50 PM 59.0 °F 33.8 °F 39% 30.09 in 6.2 mi WSW 21.9 mph 34.5 mph N/A   Partly Cloudy
4:20 PM 59.0 °F 33.8 °F 39% 30.09 in 6.2 mi WSW 21.9 mph - N/A   Partly Cloudy
4:50 PM 59.0 °F 33.8 °F 39% 30.09 in 6.2 mi WSW 23.0 mph - N/A   Partly Cloudy
5:00 PM 60 °F 33 °F 24% 30.09 in 12 mi WSW 22.4 mph - -   Scattered Clouds
5:20 PM 59.0 °F 33.8 °F 39% 30.09 in 6.2 mi WSW 18.4 mph - N/A   Partly Cloudy
5:50 PM 59.0 °F 32.0 °F 36% 30.09 in 6.2 mi WSW 20.7 mph - N/A   Partly Cloudy
6:20 PM 59.0 °F 35.6 °F 42% 30.09 in 6.2 mi WSW 16.1 mph - N/A   Partly Cloudy
6:50 PM 57.2 °F 33.8 °F 41% 30.09 in - WSW 15.0 mph - N/A   Clear
7:20 PM 55.4 °F 33.8 °F 44% 30.09 in - WSW 17.3 mph - N/A   Clear
7:50 PM 55.4 °F 33.8 °F 44% 30.09 in - WSW 15.0 mph 26.5 mph N/A   Clear
8:00 PM 56 °F 34 °F 31% 30.11 in 16 mi WSW 15.7 mph - -   Scattered Clouds
8:20 PM 55.4 °F 33.8 °F 44% 30.09 in - WSW 12.7 mph - N/A   Clear
8:50 PM 53.6 °F 33.8 °F 47% 30.09 in - SW 9.2 mph - N/A   Clear
9:20 PM 53.6 °F 33.8 °F 47% 30.09 in - SW 6.9 mph - N/A   Clear
9:50 PM 53.6 °F 33.8 °F 47% 30.09 in - SSW 8.1 mph - N/A   Clear
10:20 PM 53.6 °F 35.6 °F 51% 30.09 in - SSW 8.1 mph - N/A   Clear
10:50 PM 53.6 °F 35.6 °F 51% 30.12 in 6.2 mi SW 12.7 mph 24.2 mph N/A Rain Light Rain
11:00 PM 53 °F 36 °F 40% 30.14 in 16 mi SW 11.2 mph - - Rain Light Rain
11:20 PM 50.0 °F 41.0 °F 71% 30.12 in 6.2 mi West 11.5 mph - N/A Rain Light Rain
11:50 PM 48.2 °F 39.2 °F 71% 30.15 in - WSW 13.8 mph - N/A   Clear